Weather in Karsava

Latvia     56°46′59″N   27°41′02″E
temp.,
°C
wind,
m/s
gust,
m/s
humid.,
%
clouds,
%
prec.,
mm/h
press.,
hPa
HPBL,
m
20 june, sun
sun2000:00+18s38860 0.0 1020133
03:00+17s35932 0.0 102089
06:00+18ssw26870 0.0 1019133
09:00+24ssw35705 0.0 1019451
12:00+28ssw46535 0.0 10191493
15:00+30sw364720 0.0 10182100
18:00+25s226983 0.0 101760
21:00+24s22760 0.0 101728
21 june, mon
mon2100:00+21s39860 0.0 1017183
03:00+19s37955 0.0 1018122
06:00+19sse36916 0.0 1017150
09:00+24sse46705 0.0 1017487
12:00+28sse455226 0.0 10171145
15:00+30sse4543100 0.0 10161547
18:00+29sse4650100 0.0 1015827
21:00+23se397193 0.0 1015167
22 june, tue
tue2200:00+19se3882100 0.0 1016135
03:00+18se389030 0.0 1015153
06:00+19se3892100 0.0 1015209
09:00+24sse5872100 0.0 1015593
12:00+28sse5856100 0.0 10141729
15:00+30s574834 0.0 10142113
18:00+29sw3761100 0.0 1013816
21:00+24s378261 0.2 1014135
23 june, wed
wed2300:00+21s368879 0.0 101597
03:00+20s229037 0.0 101531
06:00+20sse259596 0.8 1016128
09:00+25s367896 1.3 1016416
12:00+28s3562100 3.7 10161192
15:00+31ssw3446100 4.3 10161836
18:00+25wnw3583100 0.6 1016164
21:00+24s018499 0.8 101611
24 june, thu
thu2400:00+21se229175 0.1 101717
03:00+20s119216 0.1 101711
06:00+21s228887 0.0 101743
09:00+25s2369100 0.0 1017318
12:00+30ssw355210 0.0 10171314
15:00+32w344999 0.0 10161556
18:00+29nnw1261100 0.5 1014369
21:00+18nw4888100 7.5 1017120